Weather History for KACK - May, 2013

Change the Weather History Date:

Tuesday, May 7, 2013

  Actual Average Record
Temperature  
Mean Temperature 55 °F -  
Max Temperature 66 °F 57 °F 68 °F (1949)
Min Temperature 46 °F 40 °F 30 °F (2001)
Degree Days  
Heating Degree Days 10    
Growing Degree Days 5 (Base 50)    
Moisture  
Dew Point 49 °F    
Average Humidity 88    
Maximum Humidity 94    
Minimum Humidity 70    
Precipitation  
Precipitation 0.00 in - - ()
Sea Level Pressure  
Sea Level Pressure 30.18 in    
Wind  
Wind Speed 3 mph (East)    
Max Wind Speed 9 mph    
Max Gust Speed -    
Visibility 4 miles    
Events Fog    
Averages and records for this station are not official NWS values.
T = Trace of Precipitation, MM = Missing Value Source: NWS Daily Summary

Daily Weather History Graph

Daily Weather History Graph

Search for Another Location

Airport or City:

Trip Planner

Search our weather history database for the weather conditions in past years. The results will help you decide how hot, cold, wet, or windy it might be!

Date:

Astronomy

May. 07, 2013 Rise Set
Actual Time 5:30 AM EDT 7:44 PM EDT
Civil Twilight 4:59 AM EDT 8:14 PM EDT
Nautical Twilight 4:21 AM EDT 8:52 PM EDT
Astronomical Twilight 3:40 AM EDT 9:34 PM EDT
Moon 4:03 AM EDT (5/7) 5:39 PM EDT (5/7)
Length of Visible Light 15h 15m
Length of Day
14h 13m
Waning Crescent, 5% of the Moon is Illuminated
May 7
Waning Crescent
May 9
New
May 18
First Quarter
May 25
Full
May 31
Last Quarter

Hourly Weather History & Observations

Time (EDT) Temp. Windchill Dew Point Humidity Pressure Visibility Wind Dir Wind Speed Gust Speed Precip Events Conditions
12:19 AM 46.4 °F - 44.6 °F 93% 30.19 in 0.2 mi Calm Calm - N/A Fog Fog
12:29 AM 46.4 °F - 44.6 °F 93% 30.19 in 0.2 mi Calm Calm - N/A Fog Fog
12:53 AM 46.9 °F - 45.0 °F 93% 30.18 in 0.2 mi Calm Calm - N/A Fog Fog
1:12 AM 46.4 °F - 44.6 °F 93% 30.17 in 0.2 mi Calm Calm - N/A Fog Fog
1:20 AM 48.2 °F - 46.4 °F 93% 30.17 in 0.2 mi Calm Calm - N/A Fog Fog
1:28 AM 48.2 °F - 46.4 °F 93% 30.17 in 0.2 mi Calm Calm - N/A Fog Fog
1:44 AM 48.2 °F - 46.4 °F 93% 30.17 in 0.2 mi Calm Calm - N/A Fog Fog
1:53 AM 48.0 °F - 45.0 °F 89% 30.17 in 0.5 mi Calm Calm - N/A Fog Fog
2:15 AM 46.4 °F 45.2 °F 44.6 °F 93% 30.17 in 0.2 mi NNE 3.5 mph - N/A Fog Fog
2:29 AM 46.4 °F 45.2 °F 44.6 °F 93% 30.16 in 0.2 mi NNE 3.5 mph - N/A Fog Fog
2:41 AM 46.4 °F 45.2 °F 44.6 °F 93% 30.16 in 0.5 mi NNE 3.5 mph - N/A Fog Fog
2:53 AM 46.9 °F - 45.0 °F 93% 30.16 in 0.5 mi NNE 3.5 mph - N/A Fog Fog
3:18 AM 46.4 °F 44.3 °F 44.6 °F 93% 30.16 in 0.2 mi NNE 4.6 mph - N/A Fog Fog
3:26 AM 46.4 °F 45.2 °F 44.6 °F 93% 30.16 in 0.2 mi NNE 3.5 mph - N/A Fog Fog
3:44 AM 46.4 °F 44.3 °F 44.6 °F 93% 30.16 in 0.2 mi NNE 4.6 mph - N/A Fog Fog
3:53 AM 46.9 °F - 45.0 °F 93% 30.16 in 0.8 mi NNE 6.9 mph - N/A   Overcast
4:01 AM 48.2 °F - 44.6 °F 87% 30.16 in 1.0 mi NNE 5.8 mph - N/A   Overcast
4:32 AM 48.2 °F - 46.4 °F 93% 30.16 in 0.8 mi NE 5.8 mph - N/A   Mist
4:53 AM 48.0 °F - 46.0 °F 93% 30.16 in 1.0 mi NNE 6.9 mph - N/A   Mist
5:04 AM 48.2 °F - 46.4 °F 93% 30.16 in 0.8 mi NNE 8.1 mph - N/A   Mist
5:39 AM 48.2 °F - 46.4 °F 93% 30.16 in 0.2 mi NE 5.8 mph - N/A Fog Fog
5:53 AM 48.9 °F - 46.9 °F 93% 30.17 in 0.2 mi ENE 4.6 mph - N/A Fog Fog
6:03 AM 48.2 °F - 46.4 °F 93% 30.16 in 0.8 mi NE 5.8 mph - N/A   Overcast
6:10 AM 48.2 °F - 46.4 °F 93% 30.16 in 0.2 mi NE 4.6 mph - N/A Fog Fog
6:29 AM 50.0 °F - 46.4 °F 87% 30.17 in 0.8 mi NE 4.6 mph - N/A   Overcast
6:53 AM 51.1 °F - 48.0 °F 89% 30.17 in 0.2 mi NE 5.8 mph - N/A Fog Fog
7:07 AM 51.8 °F - 48.2 °F 88% 30.17 in 0.2 mi East 4.6 mph - N/A Fog Fog
7:37 AM 53.6 °F - 50.0 °F 88% 30.18 in 0.2 mi ENE 4.6 mph - N/A Fog Fog
7:53 AM 53.1 °F - 51.1 °F 93% 30.18 in 0.2 mi East 4.6 mph - N/A Fog Fog
8:37 AM 55.4 °F - 53.6 °F 94% 30.18 in 0.2 mi East 3.5 mph - N/A Fog Fog
8:53 AM 57.0 °F - 55.0 °F 93% 30.19 in 0.2 mi East 3.5 mph - N/A Fog Fog
8:58 AM 57.2 °F - 55.4 °F 94% 30.19 in 1.0 mi East 3.5 mph - N/A   Mist
9:01 AM 57.2 °F - 55.4 °F 94% 30.19 in 3.0 mi Variable 4.6 mph - N/A   Overcast
9:18 AM 57.2 °F - 53.6 °F 88% 30.19 in 5.0 mi East 4.6 mph - N/A   Overcast
9:36 AM 62.6 °F - 55.4 °F 77% 30.19 in 10.0 mi SE 4.6 mph - N/A   Mostly Cloudy
9:51 AM 62.6 °F - 55.4 °F 77% 30.19 in 10.0 mi SE 5.8 mph - N/A   Scattered Clouds
9:53 AM 63.0 °F - 55.9 °F 78% 30.19 in 10.0 mi SE 5.8 mph - N/A   Scattered Clouds
10:53 AM 61.0 °F - 53.1 °F 75% 30.20 in 10.0 mi SE 9.2 mph - N/A   Scattered Clouds
11:53 AM 64.9 °F - 55.0 °F 70% 30.20 in 10.0 mi SSE 8.1 mph - N/A   Clear
12:53 PM 64.9 °F - 55.9 °F 73% 30.19 in 10.0 mi SSE 6.9 mph - N/A   Clear
1:53 PM 64.9 °F - 55.9 °F 73% 30.18 in 10.0 mi South 8.1 mph - N/A   Clear
2:53 PM 64.0 °F - 55.0 °F 73% 30.17 in 10.0 mi South 8.1 mph - N/A   Mostly Cloudy
3:53 PM 64.0 °F - 55.0 °F 73% 30.17 in 10.0 mi SSE 6.9 mph - N/A   Scattered Clouds
4:53 PM 63.0 °F - 55.0 °F 75% 30.16 in 10.0 mi SSE 5.8 mph - N/A   Clear
6:53 PM 57.9 °F - 54.0 °F 87% 30.17 in 10.0 mi SE 6.9 mph - N/A   Clear
7:53 PM 54.0 °F - 51.1 °F 90% 30.18 in 9.0 mi ESE 8.1 mph - N/A   Clear
8:53 PM 53.1 °F - 50.0 °F 89% 30.19 in 10.0 mi SE 5.8 mph - N/A   Clear
9:53 PM 55.0 °F - 51.1 °F 86% 30.20 in 10.0 mi SSE 8.1 mph - N/A   Clear
10:53 PM 55.0 °F - 52.0 °F 89% 30.20 in 10.0 mi SE 8.1 mph - N/A   Clear
11:53 PM 57.0 °F - 54.0 °F 89% 30.20 in 10.0 mi SE 9.2 mph - N/A   Clear